Year,Month,Day,Hour,Minute,Value (Times are PST for temperature in C)
2005,09,25,00,00,10.30
2005,09,25,00,01,10.30
2005,09,25,00,02,10.30
2005,09,25,00,03,10.30
2005,09,25,00,04,10.30
2005,09,25,00,05,10.30
2005,09,25,00,06,10.30
2005,09,25,00,07,10.30
2005,09,25,00,08,10.20
2005,09,25,00,09,10.20
2005,09,25,00,10,10.20
2005,09,25,00,11,10.10
2005,09,25,00,12,10.10
2005,09,25,00,13,10.00
2005,09,25,00,14,9.90
2005,09,25,00,15,9.90
2005,09,25,00,16,9.90
2005,09,25,00,17,9.90
2005,09,25,00,18,9.80
2005,09,25,00,19,9.80
2005,09,25,00,20,9.70
2005,09,25,00,21,9.70
2005,09,25,00,22,9.70
2005,09,25,00,23,9.70
2005,09,25,00,24,9.70
2005,09,25,00,25,9.60
2005,09,25,00,26,9.60
2005,09,25,00,27,9.50
2005,09,25,00,28,9.50
2005,09,25,00,29,9.50
2005,09,25,00,30,9.40
2005,09,25,00,31,9.40
2005,09,25,00,32,9.40
2005,09,25,00,33,9.40
2005,09,25,00,34,9.40
2005,09,25,00,35,9.40
2005,09,25,00,36,9.40
2005,09,25,00,37,9.50
2005,09,25,00,38,9.50
2005,09,25,00,39,9.50
2005,09,25,00,40,9.50
2005,09,25,00,41,9.50
2005,09,25,00,42,9.60
2005,09,25,00,43,9.60
2005,09,25,00,44,9.60
2005,09,25,00,45,9.70
2005,09,25,00,46,9.70
2005,09,25,00,47,9.70
2005,09,25,00,48,9.80
2005,09,25,00,49,9.90
2005,09,25,00,50,9.90
2005,09,25,00,51,9.90
2005,09,25,00,52,10.00
2005,09,25,00,53,10.10
2005,09,25,00,54,10.10
2005,09,25,00,55,10.10
2005,09,25,00,56,10.10
2005,09,25,00,57,10.10
2005,09,25,00,58,10.10
2005,09,25,00,59,10.10
2005,09,25,01,00,10.10
2005,09,25,01,01,10.10
2005,09,25,01,02,10.10
2005,09,25,01,03,10.10
2005,09,25,01,04,10.10
2005,09,25,01,05,10.10
2005,09,25,01,06,10.10
2005,09,25,01,07,10.10
2005,09,25,01,08,10.00
2005,09,25,01,09,9.90
2005,09,25,01,10,9.90
2005,09,25,01,11,9.90
2005,09,25,01,12,9.90
2005,09,25,01,13,9.90
2005,09,25,01,14,9.90
2005,09,25,01,15,9.90
2005,09,25,01,16,9.90
2005,09,25,01,17,10.00
2005,09,25,01,18,10.10
2005,09,25,01,19,10.10
2005,09,25,01,20,10.10
2005,09,25,01,21,10.10
2005,09,25,01,22,10.10
2005,09,25,01,23,10.10
2005,09,25,01,24,10.10
2005,09,25,01,25,10.10
2005,09,25,01,26,10.00
2005,09,25,01,27,9.90
2005,09,25,01,28,9.90
2005,09,25,01,29,9.90
2005,09,25,01,30,9.90
2005,09,25,01,31,9.90
2005,09,25,01,32,9.90
2005,09,25,01,33,9.90
2005,09,25,01,34,9.90
2005,09,25,01,35,9.90
2005,09,25,01,36,9.90
2005,09,25,01,37,9.90
2005,09,25,01,38,9.90
2005,09,25,01,39,9.90
2005,09,25,01,40,9.90
2005,09,25,01,41,9.90
2005,09,25,01,42,9.90
2005,09,25,01,43,9.90
2005,09,25,01,44,9.90
2005,09,25,01,45,9.90
2005,09,25,01,46,9.90
2005,09,25,01,47,9.90
2005,09,25,01,48,9.90
2005,09,25,01,49,9.90
2005,09,25,01,50,9.90
2005,09,25,01,51,9.90
2005,09,25,01,52,9.90
2005,09,25,01,53,9.90
2005,09,25,01,54,9.80
2005,09,25,01,55,9.80
2005,09,25,01,56,9.80
2005,09,25,01,57,9.80
2005,09,25,01,58,9.80
2005,09,25,01,59,9.80
2005,09,25,02,00,9.80
2005,09,25,02,01,9.80
2005,09,25,02,02,9.80
2005,09,25,02,03,9.80
2005,09,25,02,04,9.80
2005,09,25,02,05,9.80
2005,09,25,02,06,9.80
2005,09,25,02,07,9.90
2005,09,25,02,08,9.90
2005,09,25,02,09,9.90
2005,09,25,02,10,10.10
2005,09,25,02,11,10.10
2005,09,25,02,12,10.10
2005,09,25,02,13,10.10
2005,09,25,02,14,10.20
2005,09,25,02,15,10.20
2005,09,25,02,16,10.20
2005,09,25,02,17,10.10
2005,09,25,02,18,10.10
2005,09,25,02,19,10.10
2005,09,25,02,20,10.10
2005,09,25,02,21,10.10
2005,09,25,02,22,9.90
2005,09,25,02,23,9.90
2005,09,25,02,24,9.90
2005,09,25,02,25,9.80
2005,09,25,02,26,9.80
2005,09,25,02,27,9.70
2005,09,25,02,28,9.70
2005,09,25,02,29,9.70
2005,09,25,02,30,9.70
2005,09,25,02,31,9.70
2005,09,25,02,32,9.60
2005,09,25,02,33,9.60
2005,09,25,02,34,9.60
2005,09,25,02,35,9.60
2005,09,25,02,36,9.60
2005,09,25,02,37,9.50
2005,09,25,02,38,9.50
2005,09,25,02,39,9.40
2005,09,25,02,40,9.40
2005,09,25,02,41,9.30
2005,09,25,02,42,9.30
2005,09,25,02,43,9.20
2005,09,25,02,44,9.20
2005,09,25,02,45,9.20
2005,09,25,02,46,9.20
2005,09,25,02,47,9.20
2005,09,25,02,48,9.20
2005,09,25,02,49,9.10
2005,09,25,02,50,9.10
2005,09,25,02,51,9.10
2005,09,25,02,52,9.10
2005,09,25,02,53,9.10
2005,09,25,02,54,9.00
2005,09,25,02,55,9.00
2005,09,25,02,56,9.00
2005,09,25,02,57,9.00
2005,09,25,02,58,9.00
2005,09,25,02,59,9.00
2005,09,25,03,00,9.00
2005,09,25,03,01,9.00
2005,09,25,03,02,9.00
2005,09,25,03,03,8.90
2005,09,25,03,04,8.90
2005,09,25,03,05,8.90
2005,09,25,03,06,8.90
2005,09,25,03,07,8.90
2005,09,25,03,08,8.90
2005,09,25,03,09,8.90
2005,09,25,03,10,8.80
2005,09,25,03,11,8.80
2005,09,25,03,12,8.80
2005,09,25,03,13,8.80
2005,09,25,03,14,8.80
2005,09,25,03,15,8.80
2005,09,25,03,16,8.80
2005,09,25,03,17,8.80
2005,09,25,03,18,8.80
2005,09,25,03,19,8.80
2005,09,25,03,20,8.80
2005,09,25,03,21,8.80
2005,09,25,03,22,8.80
2005,09,25,03,23,8.80
2005,09,25,03,24,8.80
2005,09,25,03,25,8.70
2005,09,25,03,26,8.70
2005,09,25,03,27,8.70
2005,09,25,03,28,8.70
2005,09,25,03,29,8.70
2005,09,25,03,30,8.70
2005,09,25,03,31,8.70
2005,09,25,03,32,8.70
2005,09,25,03,33,8.70
2005,09,25,03,34,8.70
2005,09,25,03,35,8.60
2005,09,25,03,36,8.60
2005,09,25,03,37,8.60
2005,09,25,03,38,8.60
2005,09,25,03,39,8.70
2005,09,25,03,40,8.70
2005,09,25,03,41,8.70
2005,09,25,03,42,8.70
2005,09,25,03,43,8.70
2005,09,25,03,44,8.70
2005,09,25,03,45,8.70
2005,09,25,03,46,8.70
2005,09,25,03,47,8.70
2005,09,25,03,48,8.70
2005,09,25,03,49,8.70
2005,09,25,03,50,8.70
2005,09,25,03,51,8.70
2005,09,25,03,52,8.70
2005,09,25,03,53,8.70
2005,09,25,03,54,8.70
2005,09,25,03,55,8.70
2005,09,25,03,56,8.70
2005,09,25,03,57,8.70
2005,09,25,03,58,8.70
2005,09,25,03,59,8.70
2005,09,25,04,00,8.70
2005,09,25,04,01,8.70
2005,09,25,04,02,8.70
2005,09,25,04,03,8.70
2005,09,25,04,04,8.70
2005,09,25,04,05,8.70
2005,09,25,04,06,8.70
2005,09,25,04,07,8.80
2005,09,25,04,08,8.80
2005,09,25,04,09,8.90
2005,09,25,04,10,8.90
2005,09,25,04,11,9.00
2005,09,25,04,12,9.00
2005,09,25,04,13,9.10
2005,09,25,04,14,9.10
2005,09,25,04,15,9.10
2005,09,25,04,16,9.10
2005,09,25,04,17,9.10
2005,09,25,04,18,9.10
2005,09,25,04,19,9.10
2005,09,25,04,20,9.10
2005,09,25,04,21,9.10
2005,09,25,04,22,9.10
2005,09,25,04,23,9.00
2005,09,25,04,24,9.00
2005,09,25,04,25,9.00
2005,09,25,04,26,9.00
2005,09,25,04,27,9.00
2005,09,25,04,28,8.90
2005,09,25,04,29,8.90
2005,09,25,04,30,8.90
2005,09,25,04,31,8.90
2005,09,25,04,32,8.80
2005,09,25,04,33,8.80
2005,09,25,04,34,8.80
2005,09,25,04,35,8.70
2005,09,25,04,36,8.70
2005,09,25,04,37,8.70
2005,09,25,04,38,8.70
2005,09,25,04,39,8.60
2005,09,25,04,40,8.60
2005,09,25,04,41,8.60
2005,09,25,04,42,8.50
2005,09,25,04,43,8.50
2005,09,25,04,44,8.50
2005,09,25,04,45,8.50
2005,09,25,04,46,8.40
2005,09,25,04,47,8.40
2005,09,25,04,48,8.40
2005,09,25,04,49,8.40
2005,09,25,04,50,8.40
2005,09,25,04,51,8.40
2005,09,25,04,52,8.40
2005,09,25,04,53,8.40
2005,09,25,04,54,8.40
2005,09,25,04,55,8.40
2005,09,25,04,56,8.40
2005,09,25,04,57,8.40
2005,09,25,04,58,8.40
2005,09,25,04,59,8.40
2005,09,25,05,00,8.40
2005,09,25,05,01,8.30
2005,09,25,05,02,8.20
2005,09,25,05,03,8.20
2005,09,25,05,04,8.20
2005,09,25,05,05,8.20
2005,09,25,05,06,8.20
2005,09,25,05,07,8.20
2005,09,25,05,08,8.20
2005,09,25,05,09,8.10
2005,09,25,05,10,8.10
2005,09,25,05,11,8.10
2005,09,25,05,12,8.00
2005,09,25,05,13,8.00
2005,09,25,05,14,8.00
2005,09,25,05,15,8.00
2005,09,25,05,16,7.90
2005,09,25,05,17,7.90
2005,09,25,05,18,7.90
2005,09,25,05,19,7.90
2005,09,25,05,20,7.90
2005,09,25,05,21,7.90
2005,09,25,05,22,7.80
2005,09,25,05,23,7.80
2005,09,25,05,24,7.80
2005,09,25,05,25,7.80
2005,09,25,05,26,7.80
2005,09,25,05,27,7.80
2005,09,25,05,28,7.80
2005,09,25,05,29,7.80
2005,09,25,05,30,7.80
2005,09,25,05,31,7.80
2005,09,25,05,32,7.80
2005,09,25,05,33,7.80
2005,09,25,05,34,7.80
2005,09,25,05,35,7.80
2005,09,25,05,36,7.80
2005,09,25,05,37,7.80
2005,09,25,05,38,7.80
2005,09,25,05,39,7.80
2005,09,25,05,40,7.80
2005,09,25,05,41,7.80
2005,09,25,05,42,7.80
2005,09,25,05,43,7.80
2005,09,25,05,44,7.80
2005,09,25,05,45,7.80
2005,09,25,05,46,7.80
2005,09,25,05,47,7.80
2005,09,25,05,48,7.80
2005,09,25,05,49,7.70
2005,09,25,05,50,7.70
2005,09,25,05,51,7.70
2005,09,25,05,52,7.70
2005,09,25,05,53,7.60
2005,09,25,05,54,7.60
2005,09,25,05,55,7.60
2005,09,25,05,56,7.60
2005,09,25,05,57,7.60
2005,09,25,05,58,7.60
2005,09,25,05,59,7.60
2005,09,25,06,00,7.60
2005,09,25,06,01,7.60
2005,09,25,06,02,7.60
2005,09,25,06,03,7.60
2005,09,25,06,04,7.60
2005,09,25,06,05,7.60
2005,09,25,06,06,7.70
2005,09,25,06,07,7.70
2005,09,25,06,08,7.80
2005,09,25,06,09,7.80
2005,09,25,06,10,7.80
2005,09,25,06,11,7.80
2005,09,25,06,12,7.80
2005,09,25,06,13,7.80
2005,09,25,06,14,7.90
2005,09,25,06,15,7.90
2005,09,25,06,16,7.90
2005,09,25,06,17,8.00
2005,09,25,06,18,8.00
2005,09,25,06,19,8.00
2005,09,25,06,20,8.00
2005,09,25,06,21,8.00
2005,09,25,06,22,8.00
2005,09,25,06,23,8.10
2005,09,25,06,24,8.10
2005,09,25,06,25,8.00
2005,09,25,06,26,8.00
2005,09,25,06,27,8.00
2005,09,25,06,28,8.00
2005,09,25,06,29,8.00
2005,09,25,06,30,8.00
2005,09,25,06,31,8.00
2005,09,25,06,32,7.90
2005,09,25,06,33,7.90
2005,09,25,06,34,7.90
2005,09,25,06,35,7.90
2005,09,25,06,36,7.90
2005,09,25,06,37,7.90
2005,09,25,06,38,7.80
2005,09,25,06,39,7.80
2005,09,25,06,40,7.80
2005,09,25,06,41,7.70
2005,09,25,06,42,7.70
2005,09,25,06,43,7.70
2005,09,25,06,44,7.60
2005,09,25,06,45,7.60
2005,09,25,06,46,7.60
2005,09,25,06,47,7.50
2005,09,25,06,48,7.50
2005,09,25,06,49,7.50
2005,09,25,06,50,7.40
2005,09,25,06,51,7.30
2005,09,25,06,52,7.30
2005,09,25,06,53,7.30
2005,09,25,06,54,7.30
2005,09,25,06,55,7.30
2005,09,25,06,56,7.20
2005,09,25,06,57,7.20
2005,09,25,06,58,7.20
2005,09,25,06,59,7.20
2005,09,25,07,00,7.20
2005,09,25,07,01,7.30
2005,09,25,07,02,7.30
2005,09,25,07,03,7.30
2005,09,25,07,04,7.30
2005,09,25,07,05,7.30
2005,09,25,07,06,7.40
2005,09,25,07,07,7.50
2005,09,25,07,08,7.50
2005,09,25,07,09,7.60
2005,09,25,07,10,7.60
2005,09,25,07,11,7.70
2005,09,25,07,12,7.70
2005,09,25,07,13,7.80
2005,09,25,07,14,7.80
2005,09,25,07,15,7.80
2005,09,25,07,16,7.80
2005,09,25,07,17,7.90
2005,09,25,07,18,7.90
2005,09,25,07,19,8.00
2005,09,25,07,20,8.10
2005,09,25,07,21,8.10
2005,09,25,07,22,8.20
2005,09,25,07,23,8.20
2005,09,25,07,24,8.20
2005,09,25,07,25,8.30
2005,09,25,07,26,8.30
2005,09,25,07,27,8.30
2005,09,25,07,28,8.40
2005,09,25,07,29,8.40
2005,09,25,07,30,8.50
2005,09,25,07,31,8.50
2005,09,25,07,32,8.60
2005,09,25,07,33,8.60
2005,09,25,07,34,8.60
2005,09,25,07,35,8.70
2005,09,25,07,36,8.70
2005,09,25,07,37,8.70
2005,09,25,07,38,8.70
2005,09,25,07,39,8.70
2005,09,25,07,40,8.70
2005,09,25,07,41,8.70
2005,09,25,07,42,8.80
2005,09,25,07,43,8.80
2005,09,25,07,44,8.80
2005,09,25,07,45,8.80
2005,09,25,07,46,8.90
2005,09,25,07,47,8.90
2005,09,25,07,48,8.90
2005,09,25,07,49,8.90
2005,09,25,07,50,8.90
2005,09,25,07,51,9.00
2005,09,25,07,52,9.00
2005,09,25,07,53,9.10
2005,09,25,07,54,9.20
2005,09,25,07,55,9.20
2005,09,25,07,56,9.30
2005,09,25,07,57,9.30
2005,09,25,07,58,9.40
2005,09,25,07,59,9.50
2005,09,25,08,00,9.60
2005,09,25,08,01,9.70
2005,09,25,08,02,9.70
2005,09,25,08,03,9.80
2005,09,25,08,04,9.80
2005,09,25,08,05,9.90
2005,09,25,08,06,9.90
2005,09,25,08,07,9.90
2005,09,25,08,08,10.00
2005,09,25,08,09,10.10
2005,09,25,08,10,10.10
2005,09,25,08,11,10.10
2005,09,25,08,12,10.10
2005,09,25,08,13,10.10
2005,09,25,08,14,10.10
2005,09,25,08,15,10.10
2005,09,25,08,16,10.10
2005,09,25,08,17,10.10
2005,09,25,08,18,10.10
2005,09,25,08,19,10.20
2005,09,25,08,20,10.20
2005,09,25,08,21,10.20
2005,09,25,08,22,10.20
2005,09,25,08,23,10.20
2005,09,25,08,24,10.20
2005,09,25,08,25,10.30
2005,09,25,08,26,10.30
2005,09,25,08,27,10.30
2005,09,25,08,28,10.30
2005,09,25,08,29,10.40
2005,09,25,08,30,10.40
2005,09,25,08,31,10.40
2005,09,25,08,32,10.60
2005,09,25,08,33,10.60
2005,09,25,08,34,10.70
2005,09,25,08,35,10.80
2005,09,25,08,36,10.90
2005,09,25,08,37,10.90
2005,09,25,08,38,10.90
2005,09,25,08,39,11.10
2005,09,25,08,40,11.10
2005,09,25,08,41,11.10
2005,09,25,08,42,11.10
2005,09,25,08,43,11.10
2005,09,25,08,44,11.10
2005,09,25,08,45,11.10
2005,09,25,08,46,11.10
2005,09,25,08,47,11.20
2005,09,25,08,48,11.20
2005,09,25,08,49,11.20
2005,09,25,08,50,11.20
2005,09,25,08,51,11.20
2005,09,25,08,52,11.20
2005,09,25,08,53,11.20
2005,09,25,08,54,11.20
2005,09,25,08,55,11.20
2005,09,25,08,56,11.20
2005,09,25,08,57,11.20
2005,09,25,08,58,11.20
2005,09,25,08,59,11.30
2005,09,25,09,00,11.30
2005,09,25,09,01,11.30
2005,09,25,09,02,11.30
2005,09,25,09,03,11.30
2005,09,25,09,04,11.30
2005,09,25,09,05,11.40
2005,09,25,09,06,11.40
2005,09,25,09,07,11.50
2005,09,25,09,08,11.60
2005,09,25,09,09,11.60
2005,09,25,09,10,11.60
2005,09,25,09,11,11.60
2005,09,25,09,12,11.70
2005,09,25,09,13,11.80
2005,09,25,09,14,11.80
2005,09,25,09,15,11.90
2005,09,25,09,16,11.90
2005,09,25,09,17,12.00
2005,09,25,09,18,12.00
2005,09,25,09,19,12.10
2005,09,25,09,20,12.20
2005,09,25,09,21,12.20
2005,09,25,09,22,12.30
2005,09,25,09,23,12.30
2005,09,25,09,24,12.30
2005,09,25,09,25,12.30
2005,09,25,09,26,12.30
2005,09,25,09,27,12.50
2005,09,25,09,28,12.50
2005,09,25,09,29,12.50
2005,09,25,09,30,12.50
2005,09,25,09,31,12.50
2005,09,25,09,32,12.50
2005,09,25,09,33,12.50
2005,09,25,09,34,12.50
2005,09,25,09,35,12.60
2005,09,25,09,36,12.70
2005,09,25,09,37,12.70
2005,09,25,09,38,12.70
2005,09,25,09,39,12.70
2005,09,25,09,40,12.70
2005,09,25,09,41,12.80
2005,09,25,09,42,12.80
2005,09,25,09,43,12.80
2005,09,25,09,44,12.80
2005,09,25,09,45,12.90
2005,09,25,09,46,13.00
2005,09,25,09,47,13.00
2005,09,25,09,48,13.20
2005,09,25,09,49,13.20
2005,09,25,09,50,13.10
2005,09,25,09,51,13.10
2005,09,25,09,52,13.10
2005,09,25,09,53,13.10
2005,09,25,09,54,13.20
2005,09,25,09,55,13.20
2005,09,25,09,56,13.20
2005,09,25,09,57,13.30
2005,09,25,09,58,13.30
2005,09,25,09,59,13.40
2005,09,25,10,00,13.40
2005,09,25,10,01,13.40
2005,09,25,10,02,13.40
2005,09,25,10,03,13.40
2005,09,25,10,04,13.40
2005,09,25,10,05,13.40
2005,09,25,10,06,13.50
2005,09,25,10,07,13.50
2005,09,25,10,08,13.60
2005,09,25,10,09,13.70
2005,09,25,10,10,13.80
2005,09,25,10,11,13.90
2005,09,25,10,12,14.10
2005,09,25,10,13,14.10
2005,09,25,10,14,14.10
2005,09,25,10,15,14.20
2005,09,25,10,16,14.20
2005,09,25,10,17,14.20
2005,09,25,10,18,14.20
2005,09,25,10,19,14.20
2005,09,25,10,20,14.20
2005,09,25,10,21,14.10
2005,09,25,10,22,14.10
2005,09,25,10,23,14.10
2005,09,25,10,24,14.10
2005,09,25,10,25,14.20
2005,09,25,10,26,14.20
2005,09,25,10,27,14.20
2005,09,25,10,28,14.20
2005,09,25,10,29,14.20
2005,09,25,10,30,14.20
2005,09,25,10,31,14.20
2005,09,25,10,32,14.20
2005,09,25,10,33,14.20
2005,09,25,10,34,14.30
2005,09,25,10,35,14.40
2005,09,25,10,36,14.50
2005,09,25,10,37,14.60
2005,09,25,10,38,14.60
2005,09,25,10,39,14.70
2005,09,25,10,40,14.80
2005,09,25,10,41,14.80
2005,09,25,10,42,14.80
2005,09,25,10,43,14.90
2005,09,25,10,44,14.90
2005,09,25,10,45,14.90
2005,09,25,10,46,14.80
2005,09,25,10,47,14.70
2005,09,25,10,48,14.70
2005,09,25,10,49,14.80
2005,09,25,10,50,14.80
2005,09,25,10,51,14.80
2005,09,25,10,52,14.90
2005,09,25,10,53,14.90
2005,09,25,10,54,14.80
2005,09,25,10,55,14.90
2005,09,25,10,56,15.00
2005,09,25,10,57,15.00
2005,09,25,10,58,15.00
2005,09,25,10,59,14.90
2005,09,25,11,00,14.90
2005,09,25,11,01,14.90
2005,09,25,11,02,14.90
2005,09,25,11,03,14.90
2005,09,25,11,04,14.90
2005,09,25,11,05,14.90
2005,09,25,11,06,14.90
2005,09,25,11,07,14.90
2005,09,25,11,08,14.80
2005,09,25,11,09,14.80
2005,09,25,11,10,14.80
2005,09,25,11,11,14.80
2005,09,25,11,12,14.80
2005,09,25,11,13,14.80
2005,09,25,11,14,14.80
2005,09,25,11,15,14.80
2005,09,25,11,16,14.80
2005,09,25,11,17,14.70
2005,09,25,11,18,14.70
2005,09,25,11,19,14.70
2005,09,25,11,20,14.80
2005,09,25,11,21,14.80
2005,09,25,11,22,14.90
2005,09,25,11,23,15.00
2005,09,25,11,24,15.00
2005,09,25,11,25,14.90
2005,09,25,11,26,15.00
2005,09,25,11,27,15.00
2005,09,25,11,28,15.00
2005,09,25,11,29,14.90
2005,09,25,11,30,14.80
2005,09,25,11,31,14.70
2005,09,25,11,32,14.70
2005,09,25,11,33,14.60
2005,09,25,11,34,14.70
2005,09,25,11,35,14.80
2005,09,25,11,36,14.80
2005,09,25,11,37,14.80
2005,09,25,11,38,14.90
2005,09,25,11,39,14.90
2005,09,25,11,40,15.00
2005,09,25,11,41,15.00
2005,09,25,11,42,15.10
2005,09,25,11,43,15.10
2005,09,25,11,44,15.10
2005,09,25,11,45,15.10
2005,09,25,11,46,15.00
2005,09,25,11,47,15.00
2005,09,25,11,48,15.00
2005,09,25,11,49,15.10
2005,09,25,11,50,15.10
2005,09,25,11,51,15.10
2005,09,25,11,52,15.20
2005,09,25,11,53,15.20
2005,09,25,11,54,15.20
2005,09,25,11,55,15.20
2005,09,25,11,56,15.20
2005,09,25,11,57,15.20
2005,09,25,11,58,15.30
2005,09,25,11,59,15.30
2005,09,25,12,00,15.30
2005,09,25,12,01,15.40
2005,09,25,12,02,15.50
2005,09,25,12,03,15.50
2005,09,25,12,04,15.40
2005,09,25,12,05,15.40
2005,09,25,12,06,15.30
2005,09,25,12,07,15.40
2005,09,25,12,08,15.40
2005,09,25,12,09,15.50
2005,09,25,12,10,15.60
2005,09,25,12,11,15.70
2005,09,25,12,12,15.80
2005,09,25,12,13,15.90
2005,09,25,12,14,15.90
2005,09,25,12,15,15.90
2005,09,25,12,16,15.90
2005,09,25,12,17,15.90
2005,09,25,12,18,15.90
2005,09,25,12,19,15.80
2005,09,25,12,20,15.80
2005,09,25,12,21,15.90
2005,09,25,12,22,15.90
2005,09,25,12,23,16.00
2005,09,25,12,24,16.10
2005,09,25,12,25,16.10
2005,09,25,12,26,16.10
2005,09,25,12,27,16.00
2005,09,25,12,28,15.90
2005,09,25,12,29,15.80
2005,09,25,12,30,15.80
2005,09,25,12,31,15.80
2005,09,25,12,32,15.80
2005,09,25,12,33,15.80
2005,09,25,12,34,15.80
2005,09,25,12,35,15.80
2005,09,25,12,36,15.80
2005,09,25,12,37,15.90
2005,09,25,12,38,15.90
2005,09,25,12,39,15.90
2005,09,25,12,40,15.80
2005,09,25,12,41,15.90
2005,09,25,12,42,15.90
2005,09,25,12,43,15.90
2005,09,25,12,44,15.80
2005,09,25,12,45,15.80
2005,09,25,12,46,15.80
2005,09,25,12,47,15.90
2005,09,25,12,48,15.90
2005,09,25,12,49,15.80
2005,09,25,12,50,15.80
2005,09,25,12,51,15.80
2005,09,25,12,52,15.80
2005,09,25,12,53,15.80
2005,09,25,12,54,15.80
2005,09,25,12,55,15.80
2005,09,25,12,56,15.80
2005,09,25,12,57,15.80
2005,09,25,12,58,15.90
2005,09,25,12,59,15.90
2005,09,25,13,00,16.00
2005,09,25,13,01,16.10
2005,09,25,13,02,16.10
2005,09,25,13,03,16.20
2005,09,25,13,04,16.30
2005,09,25,13,05,16.30
2005,09,25,13,06,16.20
2005,09,25,13,07,16.00
2005,09,25,13,08,15.60
2005,09,25,13,09,15.20
2005,09,25,13,10,14.70
2005,09,25,13,11,14.60
2005,09,25,13,12,14.60
2005,09,25,13,13,14.30
2005,09,25,13,14,14.10
2005,09,25,13,15,14.10
2005,09,25,13,16,14.20
2005,09,25,13,17,14.10
2005,09,25,13,18,14.10
2005,09,25,13,19,14.10
2005,09,25,13,20,14.20
2005,09,25,13,21,14.20
2005,09,25,13,22,14.20
2005,09,25,13,23,14.00
2005,09,25,13,24,13.90
2005,09,25,13,25,14.00
2005,09,25,13,26,14.00
2005,09,25,13,27,13.90
2005,09,25,13,28,13.90
2005,09,25,13,29,13.80
2005,09,25,13,30,13.70
2005,09,25,13,31,13.70
2005,09,25,13,32,13.60
2005,09,25,13,33,13.50
2005,09,25,13,34,13.60
2005,09,25,13,35,13.60
2005,09,25,13,36,13.60
2005,09,25,13,37,13.60
2005,09,25,13,38,13.60
2005,09,25,13,39,13.60
2005,09,25,13,40,13.70
2005,09,25,13,41,13.70
2005,09,25,13,42,13.70
2005,09,25,13,43,13.70
2005,09,25,13,44,13.70
2005,09,25,13,45,13.60
2005,09,25,13,46,13.60
2005,09,25,13,47,13.50
2005,09,25,13,48,13.50
2005,09,25,13,49,13.60
2005,09,25,13,50,13.50
2005,09,25,13,51,13.50
2005,09,25,13,52,13.40
2005,09,25,13,53,13.40
2005,09,25,13,54,13.30
2005,09,25,13,55,13.30
2005,09,25,13,56,13.40
2005,09,25,13,57,13.40
2005,09,25,13,58,13.50
2005,09,25,13,59,13.50
2005,09,25,14,00,13.60
2005,09,25,14,01,13.70
2005,09,25,14,02,13.70
2005,09,25,14,03,13.80
2005,09,25,14,04,13.70
2005,09,25,14,05,13.70
2005,09,25,14,06,13.80
2005,09,25,14,07,13.80
2005,09,25,14,08,13.90
2005,09,25,14,09,13.90
2005,09,25,14,10,14.00
2005,09,25,14,11,14.00
2005,09,25,14,12,14.10
2005,09,25,14,13,14.20
2005,09,25,14,14,14.00
2005,09,25,14,15,13.90
2005,09,25,14,16,13.90
2005,09,25,14,17,14.00
2005,09,25,14,18,14.20
2005,09,25,14,19,14.30
2005,09,25,14,20,14.40
2005,09,25,14,21,14.40
2005,09,25,14,22,14.40
2005,09,25,14,23,14.40
2005,09,25,14,24,14.50
2005,09,25,14,25,14.50
2005,09,25,14,26,14.50
2005,09,25,14,27,14.40
2005,09,25,14,28,14.30
2005,09,25,14,29,14.20
2005,09,25,14,30,14.20
2005,09,25,14,31,14.10
2005,09,25,14,32,14.10
2005,09,25,14,33,14.00
2005,09,25,14,34,14.00
2005,09,25,14,35,13.90
2005,09,25,14,36,13.90
2005,09,25,14,37,13.90
2005,09,25,14,38,13.90
2005,09,25,14,39,13.90
2005,09,25,14,40,14.10
2005,09,25,14,41,14.20
2005,09,25,14,42,14.30
2005,09,25,14,43,14.30
2005,09,25,14,44,14.50
2005,09,25,14,45,14.50
2005,09,25,14,46,14.50
2005,09,25,14,47,14.50
2005,09,25,14,48,14.30
2005,09,25,14,49,14.20
2005,09,25,14,50,14.00
2005,09,25,14,51,14.00
2005,09,25,14,52,14.00
2005,09,25,14,53,14.10
2005,09,25,14,54,14.20
2005,09,25,14,55,14.30
2005,09,25,14,56,14.40
2005,09,25,14,57,14.50
2005,09,25,14,58,14.60
2005,09,25,14,59,14.60
2005,09,25,15,00,14.70
2005,09,25,15,01,14.70
2005,09,25,15,02,14.60
2005,09,25,15,03,14.50
2005,09,25,15,04,14.40
2005,09,25,15,05,14.20
2005,09,25,15,06,14.20
2005,09,25,15,07,14.20
2005,09,25,15,08,14.20
2005,09,25,15,09,14.20
2005,09,25,15,10,14.30
2005,09,25,15,11,14.40
2005,09,25,15,12,14.50
2005,09,25,15,13,14.50
2005,09,25,15,14,14.60
2005,09,25,15,15,14.60
2005,09,25,15,16,14.70
2005,09,25,15,17,14.80
2005,09,25,15,18,14.90
2005,09,25,15,19,15.00
2005,09,25,15,20,15.00
2005,09,25,15,21,14.90
2005,09,25,15,22,14.80
2005,09,25,15,23,14.70
2005,09,25,15,24,14.70
2005,09,25,15,25,14.60
2005,09,25,15,26,14.60
2005,09,25,15,27,14.60
2005,09,25,15,28,14.60
2005,09,25,15,29,14.70
2005,09,25,15,30,14.80
2005,09,25,15,31,14.80
2005,09,25,15,32,14.90
2005,09,25,15,33,14.90
2005,09,25,15,34,15.00
2005,09,25,15,35,15.00
2005,09,25,15,36,15.00
2005,09,25,15,37,15.10
2005,09,25,15,38,15.10
2005,09,25,15,39,15.20
2005,09,25,15,40,15.10
2005,09,25,15,41,14.90
2005,09,25,15,42,14.80
2005,09,25,15,43,14.70
2005,09,25,15,44,14.70
2005,09,25,15,45,14.60
2005,09,25,15,46,14.60
2005,09,25,15,47,14.60
2005,09,25,15,48,14.60
2005,09,25,15,49,14.70
2005,09,25,15,50,14.70
2005,09,25,15,51,14.70
2005,09,25,15,52,14.70
2005,09,25,15,53,14.70
2005,09,25,15,54,14.70
2005,09,25,15,55,14.80
2005,09,25,15,56,14.90
2005,09,25,15,57,14.90
2005,09,25,15,58,14.90
2005,09,25,15,59,14.90
2005,09,25,16,00,14.90
2005,09,25,16,01,15.00
2005,09,25,16,02,15.00
2005,09,25,16,03,15.00
2005,09,25,16,04,15.00
2005,09,25,16,05,15.10
2005,09,25,16,06,15.10
2005,09,25,16,07,15.20
2005,09,25,16,08,15.10
2005,09,25,16,09,15.00
2005,09,25,16,10,15.00
2005,09,25,16,11,15.00
2005,09,25,16,12,14.90
2005,09,25,16,13,14.90
2005,09,25,16,14,14.90
2005,09,25,16,15,14.90
2005,09,25,16,16,14.90
2005,09,25,16,17,14.80
2005,09,25,16,18,14.80
2005,09,25,16,19,14.80
2005,09,25,16,20,14.90
2005,09,25,16,21,14.90
2005,09,25,16,22,15.00
2005,09,25,16,23,15.00
2005,09,25,16,24,15.00
2005,09,25,16,25,15.10
2005,09,25,16,26,15.10
2005,09,25,16,27,15.20
2005,09,25,16,28,15.10
2005,09,25,16,29,14.90
2005,09,25,16,30,14.70
2005,09,25,16,31,14.60
2005,09,25,16,32,14.50
2005,09,25,16,33,14.50
2005,09,25,16,34,14.40
2005,09,25,16,35,14.40
2005,09,25,16,36,14.40
2005,09,25,16,37,14.40
2005,09,25,16,38,14.40
2005,09,25,16,39,14.40
2005,09,25,16,40,14.50
2005,09,25,16,41,14.50
2005,09,25,16,42,14.50
2005,09,25,16,43,14.50
2005,09,25,16,44,14.50
2005,09,25,16,45,14.60
2005,09,25,16,46,14.60
2005,09,25,16,47,14.70
2005,09,25,16,48,14.80
2005,09,25,16,49,14.90
2005,09,25,16,50,15.00
2005,09,25,16,51,15.10
2005,09,25,16,52,15.20
2005,09,25,16,53,15.40
2005,09,25,16,54,15.50
2005,09,25,16,55,15.60
2005,09,25,16,56,15.70
2005,09,25,16,57,15.80
2005,09,25,16,58,15.80
2005,09,25,16,59,15.90
2005,09,25,17,00,15.90
2005,09,25,17,01,16.10
2005,09,25,17,02,16.10
2005,09,25,17,03,16.10
2005,09,25,17,04,16.10
2005,09,25,17,05,16.10
2005,09,25,17,06,16.10
2005,09,25,17,07,16.00
2005,09,25,17,08,15.90
2005,09,25,17,09,15.90
2005,09,25,17,10,15.90
2005,09,25,17,11,15.90
2005,09,25,17,12,16.00
2005,09,25,17,13,16.10
2005,09,25,17,14,16.10
2005,09,25,17,15,16.00
2005,09,25,17,16,15.90
2005,09,25,17,17,15.90
2005,09,25,17,18,15.80
2005,09,25,17,19,15.80
2005,09,25,17,20,15.70
2005,09,25,17,21,15.70
2005,09,25,17,22,15.70
2005,09,25,17,23,15.80
2005,09,25,17,24,15.80
2005,09,25,17,25,15.80
2005,09,25,17,26,15.90
2005,09,25,17,27,15.90
2005,09,25,17,28,16.10
2005,09,25,17,29,16.10
2005,09,25,17,30,16.10
2005,09,25,17,31,16.20
2005,09,25,17,32,16.20
2005,09,25,17,33,16.20
2005,09,25,17,34,16.30
2005,09,25,17,35,16.30
2005,09,25,17,36,16.40
2005,09,25,17,37,16.40
2005,09,25,17,38,16.30